SCP
0 0 0 0 0 0 0 0 0 0 0 1 1 1 1 1 1 2 3 3 3 3 3 3 4 6 7 7 6 6 4 3 3 2 3 3 2 1 1 1 1 1 1 2
0 0 0 0 0 0 0 0 0 0 0 1 1 1 1 1 1 1 2 3 3 3 3 3 4 6 7 7 6 5 4 4 3 2 2 2 2 1 1 1 1 1 1 1
0 0 0 0 0 0 0 0 0 0 0 1 1 1 1 1 1 1 2 3 3 4 4 3 3 5 7 7 6 5 5 4 3 2 2 2 1 1 1 0 0 0 0 0
0 0 0 0 0 0 0 0 0 0 0 0 0 0 1 1 1 1 1 2 3 3 4 3 3 4 6 7 6 5 4 3 2 2 2 2 1 1 1 1 0 0 0 0
0 0 0 0 0 0 0 0 0 0 0 0 0 0 1 1 1 1 1 1 2 3 3 3 3 4 6 6 5 4 4 3 2 2 2 2 1 1 1 1 0 0 0 0
0 0 0 0 0 0 0 0 0 0 0 0 0 0 0 1 1 1 1 1 2 2 2 2 2 3 4 5 5 4 3 3 2 2 2 2 2 1 1 0 0 0 0 0
0 0 0 0 0 0 0 0 0 0 0 0 0 0 0 1 1 1 1 1 1 1 1 1 1 1 2 3 3 3 3 2 2 2 2 1 1 1 0 0 0 0 0 0
0 0 0 0 0 0 0 0 0 0 0 0 0 0 1 1 1 1 1 2 1 1 1 1 1 1 1 1 1 1 1 1 1 1 1 1 0 0 0 0 0 0 0 0
0 0 0 0 0 0 0 0 0 0 0 0 0 0 1 1 1 1 1 2 1 1 1 1 0 0 0 0 0 0 0 1 1 1 1 0 0 0 0 0 0 0 0 0
0 0 0 0 0 0 0 0 0 0 0 0 0 0 0 1 1 1 1 2 1 1 1 1 0 0 0 0 0 0 0 1 1 1 0 0 0 0 0 0 0 0 0 0
0 0 0 0 0 0 0 0 0 0 0 0 0 0 0 0 1 1 1 1 1 0 0 0 0 0 0 0 0 0 0 1 1 1 0 0 0 0 0 0 0 0 0 0
0 0 0 0 0 0 0 0 0 0 0 0 0 0 0 1 1 1 1 1 0 0 0 0 0 0 0 0 0 0 0 0 0 0 0 0 0 0 0 0 0 0 0 0
0 0 0 0 0 0 0 0 0 0 0 0 0 1 1 1 1 0 0 0 0 0 0 0 0 0 0 0 0 0 0 0 0 0 0 0 0 0 0 0 0 0 0 0
0 0 0 0 0 0 0 0 0 0 0 0 0 1 1 1 1 0 0 0 0 0 0 0 0 0 0 0 0 0 0 0 0 0 0 0 0 0 0 0 0 0 0 0
0 0 0 0 0 0 0 0 0 0 0 0 0 1 1 1 0 0 0 0 0 0 0 0 0 0 0 0 0 0 0 0 0 0 0 0 0 0 0 0 0 0 0 0
0 0 0 0 0 0 0 0 0 0 0 0 0 0 0 0 0 1 0 0 0 0 0 0 0 0 0 0 0 0 0 0 0 0 0 0 0 0 0 0 0 0 0 0
0 0 0 0 0 0 0 0 0 0 0 0 0 0 0 0 0 1 0 0 0 0 0 0 0 0 0 0 0 0 0 0 0 0 0 0 0 0 0 0 0 0 0 0
0 0 0 0 0 0 0 0 0 0 0 0 0 0 0 0 1 0 0 0 0 0 0 0 0 0 0 0 0 0 0 0 0 0 0 0 0 0 0 0 0 0 0 0
0 0 0 0 0 0 0 0 0 0 0 0 0 0 0 0 0 0 0 0 0 0 0 0 0 0 0 0 0 0 0 0 0 0 0 0 0 0 0 0 0 0 0 0
0 0 0 0 0 0 0 0 0 0 0 0 0 0 0 0 0 0 0 0 0 0 0 0 0 0 0 0 0 0 0 0 0 0 0 0 0 0 0 0 0 0 0 0
0 0 0 0 0 0 0 0 0 0 0 0 0 0 0 0 0 0 0 0 0 0 0 0 0 0 0 0 0 0 0 0 0 0 0 0 0 0 0 0 0 0 0 0
0 0 0 0 0 0 0 0 0 0 0 0 0 0 0 0 0 0 0 0 0 0 0 0 0 0 0 0 0 0 0 0 0 0 0 0 0 0 0 0 0 0 0 0
0 0 0 0 0 0 0 0 0 0 0 0 0 0 0 0 0 0 0 0 0 0 0 0 0 0 0 0 0 0 0 0 0 0 0 0 0 0 0 0 0 0 0 0
0 0 0 0 0 0 0 0 0 0 0 0 0 0 0 0 0 0 0 0 0 0 0 0 0 0 0 0 0 0 0 0 0 0 0 0 0 0 0 0 0 0 0 0
0 0 0 0 0 0 0 0 0 0 0 0 0 0 0 0 0 0 0 0 0 0 0 0 0 0 0 0 0 0 0 0 0 0 0 0 0 0 0 0 0 0 0 0
0 0 0 0 0 0 0 0 0 0 0 0 0 0 0 0 0 0 0 0 0 0 0 0 0 0 0 0 0 0 0 0 0 0 0 0 0 0 0 0 -0 0 0 0
Wind_Speed
3 4 2 6 6 5 3 3 7 7 4 1 1 2 3 5 5 4 4 5 5 5 4 5 4 4 4 4 4 4 4 3 3 3 3 3 3 4 4 4 5 6 5 5
4 3 7 4 4 4 4 4 6 6 2 2 3 3 3 5 4 4 4 4 5 5 5 5 4 5 4 3 3 4 4 3 4 2 3 3 4 4 4 5 6 7 6 6
5 7 2 2 2 3 4 5 5 4 2 2 3 2 2 4 6 6 6 5 6 6 5 5 5 5 5 4 3 2 4 4 5 5 5 6 5 4 4 5 5 6 7 7
5 5 2 3 4 4 5 6 6 3 2 2 1 1 2 3 3 4 5 5 5 6 6 6 6 6 6 6 5 4 4 5 6 5 6 6 6 6 5 5 5 7 8 8
5 3 2 4 5 4 6 2 2 2 3 0 1 2 3 3 3 3 4 4 5 5 6 7 7 7 7 6 6 5 5 5 6 5 6 7 8 7 6 6 9 8 8 8
6 3 4 5 3 2 2 3 4 5 4 0 3 3 3 2 4 4 4 5 6 6 7 7 8 7 7 7 7 6 6 6 6 7 7 9 12 11 10 8 8 7 6 7
5 5 3 2 1 1 3 5 4 5 4 4 2 2 3 1 2 6 7 6 5 6 6 7 8 8 8 8 7 7 8 9 8 9 10 10 10 11 11 9 8 8 7 6
2 7 4 2 4 3 2 6 6 4 4 4 2 2 1 2 4 7 8 7 6 6 6 7 7 7 8 8 8 8 10 9 9 10 11 10 10 8 8 9 8 8 7 7
5 6 4 2 2 4 3 3 5 6 2 1 2 1 1 5 6 7 8 8 6 6 7 7 7 7 8 9 9 8 10 10 10 10 11 11 11 11 11 10 9 8 7 8
7 4 5 3 2 1 3 6 5 5 4 2 3 3 4 7 8 7 7 7 7 6 7 7 7 7 8 9 9 10 11 11 10 10 10 10 12 12 10 10 10 10 9 8
4 3 4 3 0 1 1 2 4 3 4 5 3 5 2 5 8 9 8 7 7 7 7 7 7 7 8 9 9 10 11 11 11 12 11 12 11 10 10 10 9 9 9 9
3 5 2 4 3 1 2 3 6 4 3 4 3 5 3 4 7 9 9 9 8 8 7 8 8 8 9 9 10 10 10 11 11 11 11 11 10 10 10 9 9 8 9 8
6 5 2 6 5 3 1 0 3 4 4 4 4 3 3 7 8 9 10 10 9 9 9 8 8 8 8 9 9 10 10 10 10 10 11 11 10 9 9 8 8 8 8 8
7 5 5 6 6 3 2 1 2 3 3 4 5 4 5 7 8 9 9 9 9 9 9 9 8 8 8 8 9 9 9 9 10 10 10 10 8 7 7 7 7 7 7 7
5 3 2 3 3 2 1 1 1 2 4 5 4 5 6 7 8 9 10 10 10 10 10 9 9 8 8 8 8 8 9 8 9 9 9 8 7 7 7 7 6 6 6 6
4 4 1 2 2 1 0 2 1 0 1 3 5 3 5 8 8 9 10 11 10 10 10 10 9 9 8 8 8 8 8 7 7 8 7 6 6 7 6 6 5 6 5 5
3 5 3 2 3 2 2 2 1 1 1 3 3 4 9 9 9 9 9 10 10 11 10 9 8 8 7 7 7 7 6 6 6 6 6 5 6 6 5 5 5 5 4 4
7 5 3 1 2 2 4 1 3 4 2 1 4 8 8 8 7 6 7 10 11 11 10 9 8 8 7 6 6 6 6 6 6 5 5 4 4 4 4 4 4 3 2 3
4 7 4 3 1 3 2 1 3 4 1 3 8 10 10 11 9 6 6 8 10 10 9 8 8 7 7 7 6 7 6 5 5 4 4 3 4 4 3 3 2 2 2 2
5 5 5 3 2 4 4 1 3 4 0 4 9 11 11 7 5 4 7 10 11 10 9 8 8 8 7 5 6 7 5 5 4 3 3 3 3 3 3 2 2 1 1 2
2 3 3 3 2 5 2 1 3 2 5 6 8 10 8 3 4 9 11 10 10 10 9 8 8 7 6 5 6 6 5 4 3 3 4 3 3 3 3 2 2 2 2 3
5 4 3 4 2 5 1 2 3 4 3 7 8 7 7 9 11 12 12 11 11 10 9 8 7 6 4 5 6 6 4 3 3 4 4 3 3 3 3 3 3 3 3 3
3 5 5 5 5 2 2 1 1 4 7 6 7 9 12 12 12 12 11 11 10 9 8 6 8 6 4 4 5 6 3 3 4 4 4 3 3 3 3 3 3 3 3 2
2 3 4 2 1 2 3 3 4 5 6 8 10 12 12 13 13 12 11 10 9 8 7 6 7 7 4 4 4 4 3 3 4 3 3 2 3 3 3 3 2 2 2 2
5 4 4 2 2 3 3 4 6 9 11 12 11 10 12 15 14 12 11 10 8 7 6 6 7 6 5 4 3 3 3 4 4 3 2 2 2 2 2 2 1 1 1 2
5 7 8 7 8 6 5 5 7 11 11 12 13 11 10 12 13 11 10 8 8 7 6 6 6 5 4 4 3 2 2 3 3 2 1 1 1 1 1 1 1 1 0 1
Wind_Direction
49 67 249 237 206 211 228 254 276 276 280 37 82 77 26 41 62 74 77 85 91 87 68 60 57 67 77 84 102 112 105 108 109 121 139 128 117 108 95 79 79 80 80 86
28 281 242 226 206 204 219 258 271 290 325 123 114 86 63 53 54 61 74 71 76 76 59 54 53 58 63 74 93 103 101 114 116 132 138 121 115 103 92 81 68 72 82 84
208 244 236 196 239 229 239 213 234 241 355 62 116 59 90 68 65 59 57 58 55 63 62 53 54 56 54 46 39 70 86 97 109 113 111 114 111 104 95 84 70 59 71 78
236 260 241 247 256 201 264 233 210 207 141 270 171 218 218 132 90 75 68 61 53 49 53 50 47 46 44 37 30 34 64 82 88 103 122 132 122 112 99 93 85 69 64 71
247 233 230 254 251 193 232 264 159 171 159 98 356 154 267 162 155 139 104 89 74 60 57 54 48 45 45 43 38 32 47 73 96 105 118 119 105 99 99 95 88 78 68 66
250 244 217 229 256 195 197 59 58 52 77 155 248 164 250 224 200 159 122 100 87 73 62 56 52 52 50 49 51 46 53 56 65 84 100 115 118 117 113 104 97 85 77 70
309 300 256 205 292 358 86 81 25 357 10 256 268 158 235 264 183 154 136 116 93 78 68 58 50 49 49 52 57 61 64 63 65 76 82 92 104 109 108 106 101 96 86 78
266 291 274 217 196 205 187 142 161 202 223 273 330 209 225 94 103 112 116 115 100 86 76 66 56 55 55 55 59 66 70 68 70 78 82 85 90 92 93 92 95 92 89 84
200 257 285 262 226 158 152 180 167 141 159 233 273 234 191 141 127 126 123 116 107 93 81 73 63 60 62 60 62 69 75 74 72 76 82 83 86 89 91 90 87 87 86 86
173 241 291 308 55 37 154 150 103 124 151 228 264 235 221 188 170 152 139 130 115 101 89 79 71 67 67 67 68 70 75 78 78 80 82 85 84 87 89 88 86 84 82 81
145 175 304 353 45 243 104 113 116 123 152 160 236 263 266 193 167 157 146 133 120 108 99 89 81 74 73 73 72 74 75 78 78 82 84 85 84 85 87 87 86 86 84 80
141 126 266 284 277 251 179 177 152 153 202 172 180 263 359 130 137 140 136 126 118 111 102 94 90 85 80 79 78 78 79 79 80 83 85 84 84 84 84 85 85 85 83 79
135 113 39 345 338 351 18 208 155 133 129 161 179 247 69 106 116 124 126 123 118 113 105 97 89 86 85 83 83 81 80 83 83 85 86 84 83 84 85 85 83 83 83 78
113 116 160 202 233 251 292 292 160 137 157 193 206 174 146 137 133 130 127 123 117 114 110 105 97 90 87 85 86 86 82 83 85 85 85 84 83 85 86 85 83 82 84 82
105 135 206 243 255 223 250 290 174 191 201 188 200 165 166 155 145 137 132 127 124 122 117 113 108 102 97 93 88 87 87 86 88 88 85 84 85 84 82 80 81 82 82 84
98 134 135 321 322 203 276 335 6 112 121 119 117 116 119 120 122 132 137 137 134 129 122 118 115 111 106 102 98 92 91 90 92 93 92 90 87 84 82 83 83 82 80 77
119 127 125 274 317 24 296 284 181 105 85 154 172 155 136 132 139 144 145 140 134 129 124 122 119 114 110 106 105 101 99 95 93 94 94 93 94 91 89 92 88 85 83 83
129 117 122 116 38 247 258 293 130 114 66 93 116 128 133 125 116 111 127 134 133 131 128 122 117 113 107 105 104 103 101 99 96 93 95 98 99 96 92 90 88 83 81 85
128 129 120 118 150 286 274 188 152 134 96 117 129 125 116 114 98 89 108 123 128 127 125 122 119 115 111 110 112 109 104 103 102 103 107 111 111 106 99 93 87 83 90 90
74 96 113 128 158 240 250 239 154 111 185 149 141 141 142 136 132 142 132 123 123 122 122 122 117 111 109 113 116 112 111 110 112 118 115 109 109 110 105 93 78 77 99 102
88 71 114 148 202 261 266 183 134 165 237 156 149 149 148 136 135 133 130 124 124 122 120 119 116 114 117 119 116 115 113 115 117 107 101 96 96 101 98 85 67 78 86 87
163 152 168 148 192 255 331 126 167 199 122 128 133 134 121 115 118 125 128 127 127 122 119 118 115 110 110 119 120 118 121 120 105 99 91 82 75 78 89 89 74 70 87 88
166 180 172 175 202 257 355 85 85 126 122 125 130 127 127 126 130 129 129 129 127 124 120 116 119 113 106 119 127 126 133 117 104 92 85 79 76 72 83 94 89 73 74 88
171 131 113 119 81 60 54 64 68 94 112 121 129 131 132 132 135 131 130 128 125 121 122 122 120 119 115 115 119 126 127 119 110 97 90 94 91 80 68 72 86 97 99 99
174 136 115 124 141 104 56 84 104 99 105 111 114 122 132 133 134 134 133 132 129 124 121 122 125 127 128 123 116 121 127 124 113 103 94 90 91 103 93 76 82 121 173 182
183 166 166 195 185 156 151 137 125 117 119 123 119 114 121 131 131 130 130 129 130 128 124 123 126 130 134 134 133 131 124 129 127 117 115 121 133 133 130 113 47 24 189 201